• In Belarus
  • List of Countries
  • For 7 days
  • Water Temperature
  • Satellite Maps
  • Weather Map
  • Weather Widgets
  • user-avatar
    Login

    Hourly Weather Channarayapatna

    Today, 17 November, Saturday

    Time Temperature Precipitation Wind Pressure Humidity
    00:00 +20°C° 0 mm 3 mps 686 mmHg 95%
    01:00 +20°C° 0 mm 3 mps 686 mmHg 96%
    02:00 +20°C° 0 mm 3 mps 686 mmHg 96%
    03:00 +19°C° 0 mm 3 mps 686 mmHg 96%
    04:00 +19°C° 0 mm 3 mps 686 mmHg 97%
    05:00 +19°C° 0 mm 3 mps 686 mmHg 97%
    06:00 +20°C° 0 mm 3 mps 686 mmHg 93%
    07:00 +21°C° 0 mm 3 mps 687 mmHg 89%
    08:00 +22°C° 0 mm 4 mps 687 mmHg 85%
    09:00 +25°C° 0 mm 4 mps 687 mmHg 78%
    10:00 +26°C° 0 mm 4 mps 687 mmHg 70%
    11:00 +28°C° 0 mm 5 mps 688 mmHg 63%
    12:00 +29°C° 0 mm 4 mps 687 mmHg 60%
    13:00 +29°C° 0 mm 4 mps 687 mmHg 58%
    14:00 +30°C° 0 mm 4 mps 686 mmHg 56%
    15:00 +29°C° 0.1 mm 3 mps 686 mmHg 61%
    16:00 +28°C° 0.1 mm 3 mps 686 mmHg 66%
    17:00 +27°C° 0.1 mm 2 mps 686 mmHg 71%
    18:00 +26°C° 0.2 mm 2 mps 686 mmHg 75%
    19:00 +25°C° 0.2 mm 2 mps 686 mmHg 79%
    20:00 +23°C° 0.2 mm 2 mps 687 mmHg 83%
    21:00 +23°C° 0 mm 2 mps 687 mmHg 85%
    22:00 +23°C° 0 mm 2 mps 687 mmHg 87%
    23:00 +21°C° 0 mm 2 mps 687 mmHg 89%

    Tomorrow, 18 November, Sunday

    Time Temperature Precipitation Wind Pressure Humidity
    00:00 +21°C° 0 mm 2 mps 686 mmHg 90%
    01:00 +22°C° 0 mm 1 mps 686 mmHg 92%
    02:00 +21°C° 0 mm 1 mps 686 mmHg 94%
    03:00 +21°C° 0 mm 1 mps 686 mmHg 94%
    04:00 +21°C° 0 mm 1 mps 686 mmHg 94%
    05:00 +21°C° 0 mm 1 mps 686 mmHg 95%
    06:00 +22°C° 0 mm 1 mps 687 mmHg 91%
    07:00 +23°C° 0 mm 2 mps 687 mmHg 87%
    08:00 +24°C° 0 mm 2 mps 688 mmHg 82%
    09:00 +26°C° 0 mm 2 mps 688 mmHg 76%
    10:00 +27°C° 0 mm 3 mps 688 mmHg 69%
    11:00 +29°C° 0 mm 3 mps 689 mmHg 62%
    12:00 +29°C° 0.1 mm 3 mps 688 mmHg 61%
    13:00 +30°C° 0.1 mm 3 mps 687 mmHg 59%
    14:00 +30°C° 0.1 mm 3 mps 686 mmHg 58%
    15:00 +29°C° 0.6 mm 3 mps 686 mmHg 63%
    16:00 +28°C° 0.6 mm 2 mps 686 mmHg 68%
    17:00 +27°C° 0.6 mm 2 mps 686 mmHg 74%
    18:00 +26°C° 1.6 mm 1 mps 686 mmHg 77%
    19:00 +25°C° 1.6 mm 1 mps 687 mmHg 81%
    20:00 +24°C° 1.6 mm 1 mps 687 mmHg 85%
    21:00 +23°C° 1.5 mm 1 mps 687 mmHg 87%
    22:00 +23°C° 1.5 mm 1 mps 687 mmHg 89%
    23:00 +23°C° 1.5 mm 1 mps 687 mmHg 91%

    Day after tomorrow, 19 November, Monday

    Time Temperature Precipitation Wind Pressure Humidity
    00:00 +22°C° 0.3 mm 1 mps 687 mmHg 92%
    01:00 +22°C° 0.3 mm 1 mps 687 mmHg 93%
    02:00 +22°C° 0.3 mm 1 mps 686 mmHg 94%
    03:00 +22°C° 0 mm 1 mps 686 mmHg 95%
    04:00 +22°C° 0 mm 1 mps 687 mmHg 95%
    05:00 +21°C° 0 mm 1 mps 687 mmHg 96%
    06:00 +21°C° 0 mm 2 mps 687 mmHg 92%
    07:00 +23°C° 0 mm 2 mps 688 mmHg 89%
    08:00 +24°C° 0 mm 2 mps 689 mmHg 86%
    09:00 +25°C° 0 mm 3 mps 689 mmHg 79%
    10:00 +27°C° 0 mm 3 mps 689 mmHg 73%
    11:00 +28°C° 0 mm 3 mps 689 mmHg 66%
    12:00 +28°C° 0.3 mm 3 mps 689 mmHg 65%
    13:00 +29°C° 0.3 mm 3 mps 688 mmHg 63%
    14:00 +29°C° 0.3 mm 3 mps 687 mmHg 62%
    15:00 +28°C° 1.3 mm 2 mps 687 mmHg 67%
    16:00 +27°C° 1.3 mm 2 mps 687 mmHg 73%
    17:00 +26°C° 1.3 mm 2 mps 687 mmHg 79%
    18:00 +25°C° 1.4 mm 2 mps 688 mmHg 81%
    19:00 +24°C° 1.4 mm 2 mps 688 mmHg 84%
    20:00 +24°C° 1.4 mm 2 mps 689 mmHg 87%
    21:00 +23°C° 0.8 mm 2 mps 689 mmHg 88%
    22:00 +22°C° 0.8 mm 3 mps 689 mmHg 89%
    23:00 +22°C° 0.8 mm 3 mps 689 mmHg 91%

    20 November, Tuesday

    Time Temperature Precipitation Wind Pressure Humidity
    00:00 +21°C° 0 mm 3 mps 688 mmHg 92%
    01:00 +21°C° 0 mm 2 mps 688 mmHg 94%
    02:00 +21°C° 0 mm 2 mps 688 mmHg 95%
    03:00 +21°C° 0 mm 2 mps 688 mmHg 96%
    04:00 +20°C° 0 mm 2 mps 688 mmHg 96%
    05:00 +20°C° 0 mm 2 mps 687 mmHg 96%
    06:00 +21°C° 0 mm 2 mps 688 mmHg 93%
    07:00 +21°C° 0 mm 3 mps 689 mmHg 90%
    08:00 +22°C° 0 mm 3 mps 689 mmHg 87%
    09:00 +24°C° 0 mm 3 mps 689 mmHg 79%
    10:00 +26°C° 0 mm 4 mps 690 mmHg 72%
    11:00 +27°C° 0 mm 4 mps 690 mmHg 64%
    12:00 +28°C° 0 mm 4 mps 689 mmHg 62%
    13:00 +28°C° 0 mm 4 mps 688 mmHg 60%
    14:00 +29°C° 0 mm 4 mps 687 mmHg 58%
    15:00 +28°C° 0 mm 3 mps 687 mmHg 63%
    16:00 +27°C° 0 mm 3 mps 687 mmHg 68%
    17:00 +26°C° 0 mm 3 mps 687 mmHg 72%
    18:00 +25°C° 0 mm 3 mps 688 mmHg 75%
    19:00 +24°C° 0 mm 3 mps 689 mmHg 77%
    20:00 +22°C° 0 mm 3 mps 689 mmHg 79%
    21:00 +22°C° 0 mm 3 mps 689 mmHg 81%
    22:00 +21°C° 0 mm 3 mps 689 mmHg 84%
    23:00 +21°C° 0 mm 2 mps 689 mmHg 87%

    21 November, Wednesday

    Time Temperature Precipitation Wind Pressure Humidity
    00:00 +20°C° 0 mm 2 mps 688 mmHg 88%
    01:00 +20°C° 0 mm 2 mps 688 mmHg 90%
    02:00 +20°C° 0 mm 2 mps 687 mmHg 91%
    03:00 +19°C° 0 mm 2 mps 687 mmHg 91%
    04:00 +19°C° 0 mm 2 mps 687 mmHg 92%
    05:00 +19°C° 0 mm 2 mps 687 mmHg 92%
    06:00 +19°C° 0 mm 2 mps 688 mmHg 89%
    07:00 +20°C° 0 mm 3 mps 688 mmHg 86%
    08:00 +21°C° 0 mm 3 mps 689 mmHg 83%
    09:00 +21°C° 0 mm 4 mps 689 mmHg 80%
    10:00 +22°C° 0 mm 5 mps 689 mmHg 77%
    11:00 +22°C° 0 mm 6 mps 689 mmHg 75%
    12:00 +23°C° 0.3 mm 6 mps 688 mmHg 75%
    13:00 +23°C° 0.3 mm 6 mps 687 mmHg 74%
    14:00 +23°C° 0.3 mm 6 mps 686 mmHg 74%
    15:00 +22°C° 0.1 mm 6 mps 686 mmHg 77%
    16:00 +21°C° 0.1 mm 6 mps 686 mmHg 80%
    17:00 +20°C° 0.1 mm 5 mps 686 mmHg 83%
    18:00 +20°C° 0 mm 5 mps 687 mmHg 84%
    19:00 +20°C° 0 mm 5 mps 687 mmHg 85%
    20:00 +19°C° 0 mm 5 mps 688 mmHg 87%
    21:00 +19°C° 0 mm 5 mps 688 mmHg 87%
    22:00 +19°C° 0 mm 5 mps 688 mmHg 87%
    23:00 +19°C° 0 mm 5 mps 688 mmHg 88%

    22 November, Thursday

    Time Temperature Precipitation Wind Pressure Humidity
    00:00 +19°C° 0.1 mm 5 mps 687 mmHg 89%
    01:00 +19°C° 0.1 mm 5 mps 687 mmHg 90%
    02:00 +19°C° 0.1 mm 5 mps 686 mmHg 91%
    03:00 +19°C° 0.1 mm 5 mps 686 mmHg 91%
    04:00 +19°C° 0.1 mm 4 mps 687 mmHg 92%
    05:00 +19°C° 0.1 mm 4 mps 687 mmHg 92%
    06:00 +19°C° 0.2 mm 4 mps 687 mmHg 92%
    07:00 +20°C° 0.2 mm 4 mps 688 mmHg 93%
    08:00 +20°C° 0.2 mm 4 mps 689 mmHg 93%
    09:00 +21°C° 0.1 mm 4 mps 689 mmHg 88%
    10:00 +22°C° 0.1 mm 4 mps 689 mmHg 84%
    11:00 +23°C° 0.1 mm 4 mps 689 mmHg 79%
    12:00 +25°C° 0.4 mm 4 mps 688 mmHg 76%
    13:00 +26°C° 0.4 mm 4 mps 687 mmHg 73%
    14:00 +27°C° 0.4 mm 4 mps 686 mmHg 69%
    15:00 +26°C° 0.8 mm 4 mps 686 mmHg 74%
    16:00 +25°C° 0.8 mm 4 mps 686 mmHg 79%
    17:00 +23°C° 0.8 mm 4 mps 686 mmHg 83%
    18:00 +22°C° 0.3 mm 4 mps 687 mmHg 86%
    19:00 +21°C° 0.3 mm 4 mps 688 mmHg 89%
    20:00 +21°C° 0.3 mm 3 mps 688 mmHg 92%
    21:00 +21°C° 0.1 mm 4 mps 688 mmHg 93%
    22:00 +20°C° 0.1 mm 4 mps 688 mmHg 94%
    23:00 +20°C° 0.1 mm 4 mps 688 mmHg 95%
    Show more